Weather History for Fort Bridger AP, Fort Bridger, WY

Change the Weather History Date:

Wednesday, July 23, 2014

  Actual Average (KEVW) Record (KEVW)
Temperature  
Mean Temperature 76 °F 68 °F  
Max Temperature 94 °F 82 °F 93 °F (2006)
Min Temperature 58 °F 54 °F 48 °F (2001)
Degree Days  
Heating Degree Days 0 1  
Month to date heating degree days 35  
Since 1 June heating degree days 265  
Since 1 July heating degree days 35  
Cooling Degree Days 11 3  
Month to date cooling degree days 51  
Year to date cooling degree days 65  
Since 1 June cooling degree days 64  
Growing Degree Days 26 (Base 50)    
Moisture  
Dew Point 32 °F    
Average Humidity 20    
Maximum Humidity 30    
Minimum Humidity 12    
Precipitation  
Precipitation 0.00 in 0.03 in 0.04 in (2008)
Month to date precipitation 0.67  
Year to date precipitation 6.84  
Sea Level Pressure  
Sea Level Pressure 30.36 in    
Wind  
Wind Speed 9 mph (WSW)    
Max Wind Speed 32 mph    
Max Gust Speed 38 mph    
T = Trace of Precipitation, MM = Missing Value Source: NWS Daily Summary

Daily Weather History Graph

Daily Weather History Graph

Search for Another Location

Airport:

Trip Planner

Search our weather history database for the weather conditions in past years. The results will help you decide how hot, cold, wet, or windy it might be!

Date:

Astronomy

Jul. 23, 2014 Rise Set
Actual Time 6:08 AM MDT 8:47 PM MDT
Civil Twilight 5:36 AM MDT 9:19 PM MDT
Nautical Twilight 4:55 AM MDT 9:59 PM MDT
Astronomical Twilight 4:10 AM MDT 10:44 PM MDT
Moon 3:30 AM MDT (7/23) 6:18 PM MDT (7/23)
Length of Visible Light 15h 43m
Length of Day
14h 39m
Waning Crescent, 9% of the Moon is Illuminated
Jul 23
Waning Crescent
Jul 26
New
Aug 3
First Quarter
Aug 10
Full
Aug 17
Last Quarter

Hourly Weather History & Observations

Time (MDT) Temp. Dew Point Humidity Pressure Visibility Wind Dir Wind Speed Gust Speed Precip Events Conditions
12:15 AM 70.7 °F 30.0 °F 22% 30.40 in - SW 4.6 mph - N/A   Clear
12:35 AM 68.9 °F 30.0 °F 24% 30.39 in - SSW 6.9 mph - N/A   Clear
12:55 AM 69.1 °F 30.2 °F 24% 30.39 in - SSW 5.8 mph - N/A   Clear
1:15 AM 68.5 °F 29.8 °F 24% 30.39 in - SSW 5.8 mph - N/A   Clear
1:35 AM 74.5 °F 30.0 °F 19% 30.39 in - WNW 5.8 mph - N/A   Clear
1:55 AM 68.9 °F 29.1 °F 23% 30.38 in - Calm Calm - N/A   Clear
2:15 AM 64.0 °F 29.5 °F 27% 30.38 in - South 3.5 mph - N/A   Clear
2:35 AM 62.4 °F 29.8 °F 29% 30.39 in - WNW 5.8 mph - N/A   Clear
2:55 AM 61.3 °F 29.5 °F 30% 30.38 in - WSW 9.2 mph - N/A   Clear
3:15 AM 64.4 °F 26.6 °F 24% 30.38 in - West 6.9 mph - N/A   Clear
3:35 AM 62.8 °F 27.1 °F 26% 30.38 in - WSW 8.1 mph - N/A   Clear
3:55 AM 61.9 °F 28.2 °F 28% 30.38 in - West 8.1 mph - N/A   Clear
4:15 AM 64.0 °F 30.4 °F 28% 30.38 in - WNW 4.6 mph - N/A   Clear
4:35 AM 66.9 °F 29.1 °F 24% 30.38 in - Calm Calm - N/A   Clear
4:55 AM 61.3 °F 26.6 °F 27% 30.38 in - Calm Calm - N/A   Clear
5:15 AM 63.9 °F 25.7 °F 24% 30.38 in - Calm Calm - N/A   Clear
5:35 AM 58.1 °F 25.3 °F 28% 30.39 in - West 6.9 mph - N/A   Clear
5:55 AM 60.3 °F 24.1 °F 25% 30.39 in - West 8.1 mph - N/A   Clear
6:15 AM 61.0 °F 24.4 °F 25% 30.40 in - West 8.1 mph - N/A   Clear
6:35 AM 61.7 °F 25.2 °F 25% 30.40 in - West 9.2 mph - N/A   Clear
6:55 AM 62.1 °F 23.9 °F 23% 30.40 in - West 8.1 mph - N/A   Clear
7:15 AM 65.1 °F 24.3 °F 21% 30.40 in - West 8.1 mph - N/A   Clear
7:35 AM 68.2 °F 24.4 °F 19% 30.40 in - WNW 8.1 mph - N/A   Clear
7:55 AM 68.2 °F 25.3 °F 20% 30.41 in - West 6.9 mph - N/A   Clear
8:15 AM 71.6 °F 23.9 °F 17% 30.41 in - West 4.6 mph - N/A   Clear
8:35 AM 70.2 °F 25.3 °F 19% 30.41 in - West 4.6 mph - N/A   Clear
8:55 AM 73.2 °F 25.0 °F 17% 30.41 in - Calm Calm - N/A   Clear
9:15 AM 74.3 °F 25.2 °F 16% 30.41 in - NW 3.5 mph - N/A   Clear
9:35 AM 75.9 °F 27.1 °F 16% 30.41 in - Calm Calm - N/A   Clear
11:35 AM 88.2 °F 32.0 °F 13% 30.39 in - WNW 8.1 mph - N/A   Scattered Clouds
11:55 AM 89.8 °F 32.0 °F 13% 30.38 in - West 16.1 mph 23.0 mph N/A   Scattered Clouds
12:15 PM 90.9 °F 32.2 °F 12% 30.38 in - West 15.0 mph 25.3 mph N/A   Clear
12:35 PM 91.0 °F 32.4 °F 12% 30.38 in - West 18.4 mph 27.6 mph N/A   Clear
12:55 PM 91.2 °F 32.9 °F 13% 30.37 in - West 13.8 mph 31.1 mph N/A   Clear
1:15 PM 90.7 °F 33.4 °F 13% 30.37 in - West 15.0 mph 29.9 mph N/A   Clear
1:35 PM 92.3 °F 33.8 °F 13% 30.37 in - West 23.0 mph 31.1 mph N/A   Clear
1:55 PM 92.3 °F 34.0 °F 13% 30.36 in - SW 21.9 mph 32.2 mph N/A   Clear
2:15 PM 92.1 °F 34.0 °F 13% 30.36 in - WSW 19.6 mph 29.9 mph N/A   Clear
2:35 PM 92.5 °F 34.2 °F 13% 30.35 in - West 23.0 mph 33.4 mph N/A   Clear
2:55 PM 93.7 °F 34.0 °F 12% 30.34 in - WSW 21.9 mph 31.1 mph N/A   Clear
3:15 PM 94.5 °F 34.2 °F 12% 30.34 in - West 20.7 mph 29.9 mph N/A   Clear
3:35 PM 93.4 °F 33.6 °F 12% 30.33 in - WSW 16.1 mph 34.5 mph N/A   Clear
3:55 PM 93.4 °F 33.6 °F 12% 30.32 in - WSW 20.7 mph 31.1 mph N/A   Clear
4:15 PM 93.7 °F 33.4 °F 12% 30.31 in - West 21.9 mph 33.4 mph N/A   Clear
4:35 PM 93.9 °F 34.2 °F 12% 30.30 in - WSW 19.6 mph 28.8 mph N/A   Clear
4:55 PM 92.3 °F 37.2 °F 14% 30.30 in - South 15.0 mph 29.9 mph N/A   Scattered Clouds
5:15 PM 91.4 °F 35.4 °F 14% 30.29 in - SSE 15.0 mph 18.4 mph N/A   Scattered Clouds
5:35 PM 91.9 °F 35.4 °F 14% 30.28 in - South 15.0 mph 23.0 mph N/A   Scattered Clouds
5:55 PM 90.7 °F 40.3 °F 17% 30.29 in - SSE 17.3 mph - N/A   Mostly Cloudy
6:15 PM 90.0 °F 37.9 °F 16% 30.28 in - South 19.6 mph 23.0 mph N/A   Mostly Cloudy
6:35 PM 88.3 °F 38.8 °F 17% 30.29 in - South 15.0 mph 24.2 mph N/A   Scattered Clouds
6:55 PM 83.3 °F 39.2 °F 21% 30.29 in - South 32.2 mph 38.0 mph N/A   Scattered Clouds
7:35 PM 78.6 °F 42.8 °F 28% 30.29 in - SSE 18.4 mph - N/A   Scattered Clouds
8:00 PM 78.8 °F 42.4 °F 27% 30.28 in - South 16.1 mph 23.0 mph N/A   Clear
8:15 PM 78.1 °F 42.6 °F 28% 30.28 in - SSE 12.7 mph - N/A   Clear
8:40 PM 77.0 °F 41.0 °F 28% 30.27 in - SSE 11.5 mph - N/A   Clear
9:00 PM 77.2 °F 39.4 °F 26% 30.27 in - South 15.0 mph 19.6 mph N/A   Clear
11:55 PM 73.8 °F 37.9 °F 27% 30.27 in - SW 9.2 mph - N/A   Scattered Clouds